sat.trackr.live / text

‹ back to catalog

ONEWEB-0713

NORAD 55175 · 2023-004AM

PAYLOAD ACTIVE UNKNOWN

§ Identity

Operator
Country
UK
Launch date
2023-01-10
Launch site
AFETR
Launch vehicle
Mass (kg)
RCS (m²)

Purposes: comms

External: N2YO · Heavens-Above · Gunter

§ Orbital elements

Epoch: 2026-09-20T00:44:43.931328Z

Period
109.80 min
Inclination
87.8971°
Eccentricity
0.0001953
Mean motion
13.11417433 rev/d
Perigee alt
1,216.2 km
Apogee alt
1,219.2 km
Semi-major
7,595.8 km
B*
1.1386e-3
RAAN
2.2159°
Arg perigee
112.4799°
Mean anomaly
247.6536°
Rev number
17,825

§ Raw data

ONEWEB-07131 55175U 23004AM  26263.03106402  .00000416  00000+0  11386-2 0  99982 55175  87.8971   2.2159 0001953 112.4799 247.6536 13.11417433178259

JSON: /api/v1/satellites/55175 · /tle

For live sub-satellite position, see the globe view (requires WebGL).

§ Visibility from observer

Set your observer location to see the next 7 days of passes ≥ 10°. The values pass through the URL so the page stays shareable.

No JS? Fill the form by hand. The geolocation button needs JavaScript.